Regional Weather Roundup
Issued by NWS

Home | Current Version | Previous Version | Text Only | Print | Product List | Glossary On
Versions: 1 2 3 4 5 6 7 8 9 10 11 12 13 14 15 16 17 18 19 20 21 22 23 24 25 26 27 28 29 30 31 32 33 34 35 36 37 38 39 40 41 42 43 44 45 46 47 48 49 50
000
ASUS46 KSEW 040510
RWRWA

WASHINGTON REGIONAL WEATHER ROUNDUP
NATIONAL WEATHER SERVICE SEATTLE WA
900 PM PST SAT DEC 03 2016

NOTE:"FAIR" INDICATES FEW OR NO CLOUDS BELOW 12,000 FEET WITH NO
SIGNIFICANT WEATHER AND/OR OBSTRUCTIONS TO VISIBILITY.

WAZ507-509-555>559-040600-
SEATTLE, TACOMA, EVERETT, AND VICINITY

CITY           SKY/WX    TMP DP  RH WIND       PRES   REMARKS
EVERETT        CLOUDY    45  42  89 S13       30.07F
BOEING FIELD   CLOUDY    47  45  93 S13       30.11F
RENTON         LGT RAIN  46  44  93 S9        30.11F
SEATAC AIRPORT CLOUDY    46  44  93 S18G24    30.10F
JBLM-MCCHORD   LGT RAIN  45  45  99 SW10      30.13F
PUYALLUP       DRIZZLE   45  45 100 VRB5G12   30.13F
BREMERTON      CLOUDY    43  43 100 S16       30.11S
JBLM-FT LEWIS  LGT RAIN  45  45 100 S10       30.13S
TACOMA NARROWS LGT RAIN  45  44  97 S14G22    30.12S
$$

WAZ001-503-506-510-514-515-040600-
NORTH INTERIOR

CITY           SKY/WX    TMP DP  RH WIND       PRES   REMARKS
BELLINGHAM     LGT RAIN  44  42  93 S8        30.04F
FRIDAY HARBOR  RAIN      44  40  85 SW5       30.08F
EASTSOUND      LGT RAIN  45  43  93 S10       30.04F
PORT ANGELES   LGT RAIN  43  41  93 W6        30.08F
EDIZ HOOK      LGT RAIN  44  41  88 W6        30.08F
PORT TOWNSEND  MIX PCPN  43  43 100 CALM      30.08F
NAS WHIDBEY    LGT RAIN  46  39  76 W20       30.12F
ARLINGTON      CLOUDY    46  37  71 CALM      30.09S
BURLINGTON     CLOUDY    43  41  93 SW6       30.07F
$$

WAZ020-022-039-040-504-511-512-040600-
SOUTHWEST INTERIOR

CITY           SKY/WX    TMP DP  RH WIND       PRES   REMARKS
SHELTON        LGT RAIN  46  43  89 SW13      30.09F
OLYMPIA        LGT RAIN  45  44  97 S10       30.14F
CHEHALIS       LGT RAIN  46  46 100 S7        30.16F
KELSO          LGT RAIN  46  45  96 S7        30.22F
VANCOUVER      LGT RAIN  49  43  80 VRB3      30.23F
SCAPPOOSE, OR  LGT RAIN  47  43  86 S5        30.21F
PORTLAND, OR   LGT RAIN  48  43  82 S8        30.24F
$$

WAZ021-516-517-040600-
WASHINGTON COAST

CITY           SKY/WX    TMP DP  RH WIND       PRES   REMARKS
FORKS          LGT RAIN  42  41  96 W5        30.11F
HOQUIAM        LGT RAIN  48  47  96 W14       30.14F FOG
ASTORIA, OR    LGT RAIN  51  42  71 SW15G25   30.18F
$$

WAZ019-023-024-040-567>569-040600-
CASCADE MOUNTAINS AND COLUMBIA GORGE

CITY           SKY/WX    TMP DP  RH WIND       PRES   REMARKS
STAMPEDE PASS  SNOW      30  30 100 VRB5      29.98F VSB 1/2
TROUTDALE, OR  LGT RAIN  49  44  83 SW6       30.24F
THE DALLES, OR MOCLDY    47  37  68 W8        30.15F
$$

WAZ026-027-041>044-520-521-040600-
EAST SLOPES

CITY           SKY/WX    TMP DP  RH WIND       PRES   REMARKS
OMAK           CLOUDY    30  28  92 CALM      29.97F
WENATCHEE      MOCLDY    38  29  70 N6        30.00F
ELLENSBURG     MOCLDY    39  33  79 W5        30.04F
YAKIMA         CLOUDY    40  31  70 E5        30.06S
$$

WAZ028-034-035-040600-
COLUMBIA BASIN

CITY           SKY/WX    TMP DP  RH WIND       PRES   REMARKS
EPHRATA        MOCLDY    41  29  62 SW14      30.01F
MOSES LAKE     CLOUDY    43  32  65 S12       30.04F
PASCO          CLOUDY    48  36  63 SW17G25   30.11F
HERMISTON, OR  CLOUDY    46  31  55 SW12      30.14S
$$

WAZ036>038-040600-
NORTHEAST WASHINGTON

CITY           SKY/WX    TMP DP  RH WIND       PRES   REMARKS
SPOKANE GEIGER CLOUDY    37  32  82 S12       30.02F
SPOKANE FELTS  CLOUDY    40  34  79 SW13      30.04F
FAIRCHILD AFB  CLOUDY    36  35  94 SW16      30.00F
COEURDALENE,ID CLOUDY    38  33  82 S16G23    30.02F
DEER PARK      CLOUDY    37  32  82 SE3       30.02F
$$

WAZ029>033-040600-
SOUTHEAST WASHINGTON

CITY           SKY/WX    TMP DP  RH WIND       PRES   REMARKS
PULLMAN        CLOUDY    39  31  72 SW14      30.09F
LEWISTON, ID   CLOUDY    45  32  60 S6        30.11F
WALLA WALLA    CLOUDY    45  32  60 S16       30.12F
PENDLETON, OR  CLOUDY    43  29  57 SW12      30.13F
$$



USA.gov is the U.S. government's official web portal to all federal, state and local government web resources and services.